SCP
0 0 0 0 0 0 0 0 0 0 0 0 0 0 0 0 0 0 0 0 0 0 0 0 0 0 0 0 0 0 0 0 0 0 0 0 0 0 0 0 0 0 0
0 0 0 0 0 0 0 0 0 0 0 0 0 0 0 0 0 0 0 0 0 0 0 0 0 0 0 0 0 0 0 0 0 0 0 0 0 0 0 0 0 0 0
0 0 0 0 0 0 0 0 0 0 0 0 0 0 0 0 0 0 0 0 0 0 0 0 0 0 0 0 0 0 0 0 0 0 0 0 0 0 0 0 0 0 0
0 0 0 0 0 0 0 0 0 0 0 0 0 0 0 0 0 0 0 0 0 0 0 0 0 0 0 0 0 0 0 0 0 0 0 0 0 0 0 0 0 0 0
0 0 0 0 0 0 0 -0 0 0 0 0 0 0 0 0 0 0 0 0 0 0 0 0 0 0 0 0 0 0 0 0 0 0 0 0 0 0 0 0 0 0 0
0 0 0 0 0 0 -0 0 0 0 0 0 0 0 0 0 0 0 0 0 0 0 0 0 0 0 0 0 0 0 0 0 0 0 0 0 0 0 0 0 0 0 0
0 0 0 0 0 0 0 0 0 0 0 0 0 0 0 0 0 0 0 0 0 0 0 0 0 0 0 0 0 0 0 0 0 0 0 0 0 0 0 0 0 0 0
0 0 0 0 0 0 0 0 0 0 0 0 0 0 0 0 0 0 0 0 0 0 0 0 0 0 0 0 0 0 0 0 0 0 0 0 0 0 0 0 0 0 0
0 0 0 0 0 0 0 0 0 0 0 0 0 0 0 0 0 0 0 0 0 0 0 0 0 0 0 0 0 0 0 0 0 0 0 0 0 0 0 0 0 0 0
0 0 0 0 0 0 0 0 0 0 0 0 0 0 0 0 0 0 0 0 0 0 0 0 0 0 0 0 0 0 0 0 0 0 0 0 0 0 0 0 0 0 0
0 0 0 0 0 0 0 0 0 0 0 0 0 0 0 0 0 0 0 0 0 0 0 0 0 0 0 0 0 0 0 0 0 0 0 0 0 0 0 0 0 0 0
0 0 0 -0 0 0 0 0 -0 0 0 0 0 0 0 0 0 0 0 0 0 0 0 0 0 0 0 0 0 0 0 0 0 0 0 0 0 0 0 0 0 0 0
0 -0 -0 -0 -0 0 0 0 -0 0 0 0 0 0 0 0 0 0 0 0 0 0 0 0 0 0 0 0 0 0 0 0 0 0 0 0 0 0 0 0 0 0 0
-0 -0 -0 -0 -0 -0 -0 0 0 0 0 0 0 0 0 0 0 0 0 0 0 0 0 0 0 0 0 0 0 0 0 0 0 0 0 0 0 0 0 0 0 0 0
-0 -0 0 -0 0 -0 -0 -0 -0 0 -0 0 0 0 0 0 0 0 0 0 0 0 0 0 0 0 0 0 0 0 0 0 0 0 0 0 0 0 0 0 0 0 0
-0 -0 -0 -0 -0 0 0 0 -0 -0 -0 -0 0 0 0 0 0 0 0 0 0 0 0 0 0 0 0 0 0 0 0 0 0 0 0 0 0 0 0 0 0 0 0
-0 -0 -0 -0 0 0 0 0 0 0 0 0 0 0 0 0 0 0 0 0 0 0 0 0 0 0 0 0 0 0 0 0 0 0 0 0 0 0 0 0 0 0 0
-0 -0 0 0 0 0 0 0 0 0 0 0 0 0 0 0 0 0 0 0 0 0 0 0 0 0 0 0 0 0 0 0 0 0 0 0 0 0 0 0 0 0 0
0 0 0 0 0 0 0 0 0 0 0 0 0 0 0 0 0 0 0 0 0 0 0 0 0 0 0 0 0 0 0 0 0 0 0 0 0 0 0 0 0 0 0
0 0 0 0 0 0 0 0 0 0 0 0 0 0 0 0 0 0 0 0 0 0 0 0 0 0 0 0 0 0 0 0 0 0 0 0 0 0 0 0 0 0 0
0 0 0 0 0 0 0 0 0 0 0 0 0 0 0 0 0 0 0 0 0 0 0 0 0 0 0 0 0 0 0 0 0 0 0 0 0 0 0 0 0 0 0
0 0 0 0 0 0 0 0 0 0 0 0 0 0 0 0 0 0 0 0 0 0 0 0 0 0 0 0 0 0 0 0 0 0 0 0 0 0 0 0 0 0 0
0 0 0 0 0 0 0 0 0 0 0 0 0 0 0 0 0 0 0 0 0 0 0 0 0 0 0 0 0 0 0 0 0 0 0 0 0 0 0 0 0 0 0
0 0 0 0 0 0 0 0 0 0 0 0 0 0 0 0 0 0 0 0 0 0 0 0 0 0 0 0 0 0 0 0 0 0 0 0 0 0 0 0 0 0 0
0 0 0 0 0 0 0 0 0 0 0 0 0 0 0 0 0 0 0 0 0 0 0 0 0 0 0 0 0 0 0 0 0 0 0 0 0 0 0 0 0 0 0
0 0 0 0 0 0 0 0 0 0 0 0 0 0 0 0 0 0 0 0 0 0 0 0 0 0 0 0 0 0 0 0 0 0 0 0 0 0 0 0 0 0 0
Wind_Speed_500mb
24 27 32 32 41 36 45 50 38 22 28 35 38 29 32 28 24 15 13 10 16 25 29 36 48 48 51 55 55 57 61 59 62 52 55 50 48 41 39 35 36 38 41
15 17 21 26 24 34 40 40 31 33 36 37 40 36 26 17 23 24 19 31 39 41 29 30 29 26 31 34 39 44 47 48 46 42 36 29 24 22 21 21 25 28 27
13 17 22 30 39 43 40 39 36 38 43 38 35 24 19 16 16 12 12 11 14 14 15 16 17 17 15 13 12 9 9 5 5 18 19 16 15 13 14 18 19 16 13
6 15 25 33 38 40 42 33 43 42 35 33 26 13 24 25 23 28 32 35 38 37 33 29 26 21 19 16 11 9 9 5 6 8 14 17 15 18 13 13 15 15 15
12 22 25 31 37 38 38 40 39 37 36 31 35 44 49 52 51 43 39 37 37 31 27 24 23 25 25 24 22 26 25 21 18 18 24 26 28 28 25 24 24 24 21
30 34 37 42 45 48 53 50 51 56 63 62 64 62 57 53 46 37 33 32 32 29 27 27 28 27 24 23 23 24 25 25 24 20 24 25 24 22 22 22 19 17 15
48 53 58 65 70 70 71 77 75 69 64 63 59 51 52 48 40 34 30 27 27 30 31 28 26 29 27 25 24 22 22 20 17 14 12 14 13 13 11 11 13 12 11
70 72 73 74 76 73 72 73 67 62 59 52 49 46 42 45 36 32 28 30 30 32 32 29 26 26 28 26 20 17 20 18 18 16 12 10 11 10 9 8 9 9 10
72 72 69 71 73 71 69 66 60 54 53 53 49 47 46 46 38 34 27 25 24 24 24 23 23 20 20 20 14 14 14 13 13 10 9 5 7 6 6 7 8 10 12
61 58 58 59 60 59 55 51 51 48 48 43 42 41 39 40 34 31 25 21 18 17 16 17 13 15 13 10 7 6 6 5 4 3 3 5 6 9 11 13 14 15 18
50 46 49 50 52 50 47 43 42 41 38 34 34 33 29 26 24 18 15 12 11 8 10 9 9 9 7 7 8 8 9 9 8 10 12 13 13 16 17 19 20 22 23
39 38 40 40 41 38 34 35 33 29 26 28 25 25 23 19 14 10 7 6 4 5 5 6 5 7 9 11 11 11 11 11 11 12 15 17 19 21 23 23 23 21 24
28 26 26 25 25 25 22 21 18 17 16 17 15 14 13 11 9 6 6 7 10 8 10 11 15 13 16 19 18 16 15 14 14 15 18 19 20 22 22 25 25 27 28
22 21 20 16 15 15 14 13 12 10 9 10 10 10 10 10 11 10 8 10 10 9 7 10 13 15 15 20 19 15 14 15 17 18 18 18 21 23 23 25 25 25 27
22 19 15 13 11 9 6 2 1 1 2 4 5 7 7 8 12 14 16 12 14 12 12 15 16 19 21 22 21 20 21 23 25 24 24 23 23 23 24 25 24 25 25
25 23 21 19 17 15 12 12 12 13 14 14 15 15 16 20 21 22 24 22 19 15 14 18 21 23 24 23 23 24 25 25 24 23 22 21 21 22 23 24 24 24 25
23 21 18 15 12 9 7 7 8 12 14 15 18 20 15 16 18 20 21 18 16 16 17 19 20 21 22 23 25 25 25 23 22 23 22 21 23 23 24 24 24 25 26
24 22 21 19 17 15 14 13 16 18 19 19 19 18 22 19 19 18 17 15 14 12 13 15 17 19 21 22 23 22 22 22 22 23 23 23 23 24 25 25 26 26 26
19 19 18 16 13 10 9 9 10 13 15 16 18 18 19 19 19 19 17 15 14 13 13 14 15 16 18 19 21 22 23 25 25 26 27 27 28 28 27 27 27 28 28
21 22 22 20 19 17 15 13 12 12 13 14 16 15 14 15 16 16 14 13 13 13 13 15 16 18 20 22 24 25 26 27 28 29 31 32 32 32 32 32 32 33 33
21 22 22 21 19 17 15 14 13 13 14 16 17 15 15 13 12 11 11 12 13 14 15 17 18 20 21 23 24 26 28 30 33 34 34 35 37 37 38 39 40 42 42
19 20 20 20 19 17 15 13 12 13 13 13 13 13 11 12 13 14 15 15 16 17 18 19 21 23 25 26 28 29 30 30 32 37 38 39 40 40 42 44 45 46 47
21 21 21 21 19 17 15 14 13 12 12 12 12 12 13 14 15 16 17 18 19 21 22 22 22 24 28 30 33 35 37 37 38 40 43 44 45 46 46 48 49 50 51
22 22 23 22 21 20 18 15 13 13 13 14 15 16 17 18 19 20 21 21 22 23 25 28 31 34 35 36 38 40 43 44 47 48 51 55 56 56 56 57 57 57 58
23 24 23 22 20 19 17 16 16 16 16 17 18 19 20 21 23 23 24 25 26 28 30 34 37 39 41 44 46 48 50 52 54 56 59 62 64 65 65 66 66 65 64
22 22 22 21 19 18 18 18 17 17 17 19 20 22 22 23 24 25 27 31 33 36 39 42 46 51 52 53 53 55 58 61 64 66 69 72 75 75 75 74 73 72 72
Wind_Direction_500mb
227 231 239 232 233 225 229 222 222 221 216 216 219 215 211 226 233 212 233 228 269 276 242 259 254 245 252 254 260 262 254 249 245 247 253 246 239 237 234 235 232 233 234
247 236 231 221 213 210 217 207 211 205 205 197 191 185 189 197 196 200 225 245 249 252 235 242 249 242 250 254 254 255 255 257 256 258 239 229 228 229 226 222 218 224 232
239 226 218 209 201 193 190 175 183 189 191 185 185 187 188 207 229 227 225 203 162 150 139 124 109 91 97 91 90 96 96 87 231 235 211 195 182 175 185 194 199 207 216
221 202 199 180 173 181 175 162 175 176 179 176 173 155 138 136 129 119 115 118 110 108 104 97 103 100 96 96 95 85 69 65 99 134 147 148 149 148 151 168 168 157 152
157 157 156 152 153 157 144 157 158 158 146 140 135 125 118 112 106 107 105 108 106 105 104 105 102 95 87 83 82 86 82 90 102 112 122 126 131 136 141 148 153 150 150
124 121 123 126 131 125 132 127 130 126 118 119 114 112 109 104 104 106 106 107 103 105 109 107 103 96 93 91 85 84 86 89 94 109 119 129 135 142 150 155 164 172 193
102 102 104 108 110 114 113 116 114 109 110 109 109 107 102 101 102 98 97 101 111 113 107 101 99 94 87 81 81 84 91 94 104 108 118 136 150 161 178 195 199 196 204
88 92 94 97 98 101 101 97 100 103 103 105 106 105 109 100 98 95 99 103 108 105 102 100 96 95 90 82 77 85 91 99 103 105 109 123 132 146 159 179 192 207 220
71 76 80 83 86 87 87 91 93 93 98 99 102 106 106 102 98 95 92 93 98 102 100 105 97 96 91 92 82 82 84 101 109 111 110 142 156 175 197 209 222 237 243
68 71 75 82 84 86 88 90 93 101 101 102 105 105 106 106 103 97 96 95 94 93 100 89 93 79 71 60 52 44 55 47 37 18 274 263 268 261 256 257 258 257 257
63 67 73 77 80 81 85 88 89 88 91 94 97 95 93 89 91 91 91 87 84 72 66 65 47 47 18 354 338 332 326 311 301 284 279 275 271 270 271 268 268 267 267
58 60 64 65 67 71 74 78 78 80 89 90 81 77 75 73 70 63 47 24 20 359 352 335 309 297 295 300 294 296 300 297 293 291 285 280 275 270 267 267 267 265 264
59 61 64 67 74 79 77 80 84 82 74 78 75 76 66 51 24 350 304 290 284 285 276 275 279 289 298 300 301 299 300 306 309 313 308 302 296 291 290 290 287 284 278
52 55 59 62 71 77 76 76 65 61 48 35 27 18 7 358 340 335 347 343 331 315 293 294 295 302 304 300 318 311 303 308 308 304 301 295 294 291 290 285 282 279 284
50 56 58 61 59 53 49 77 152 224 254 320 328 332 326 309 301 309 304 290 292 291 280 284 284 291 295 300 307 306 305 305 303 303 306 299 294 294 293 292 294 294 289
32 33 33 29 22 22 33 40 28 13 5 358 352 348 330 319 313 303 301 299 278 272 271 276 280 286 294 296 298 299 299 303 308 305 295 298 301 298 297 300 301 297 294
28 27 29 28 28 21 351 321 317 327 324 326 329 330 328 312 301 301 304 305 287 281 277 273 276 284 291 296 299 303 307 308 306 303 305 305 300 300 299 300 299 295 293
25 21 18 13 6 357 345 325 315 313 313 315 314 312 317 321 318 317 318 319 307 294 287 284 290 296 301 305 309 313 315 315 314 313 311 308 307 306 305 303 300 297 295
19 16 11 8 4 353 337 319 304 300 302 306 307 311 316 317 319 321 323 318 323 323 318 314 313 314 315 315 314 314 312 311 309 308 307 308 308 306 305 304 302 301 299
7 3 358 353 350 346 340 333 323 315 309 305 307 314 313 319 322 322 327 332 330 328 325 320 316 312 309 307 307 308 310 310 309 312 312 310 308 306 304 301 298 294 293
0 356 352 346 339 331 319 308 303 299 298 301 310 322 322 321 326 325 324 322 320 316 311 309 309 309 309 309 309 309 310 312 312 308 306 305 304 303 301 298 294 291 291
337 334 331 327 323 316 307 297 288 284 286 290 297 303 309 312 311 310 312 312 312 312 311 310 310 308 308 309 310 310 310 310 308 306 305 303 299 297 294 293 291 291 290
326 328 327 323 317 310 301 292 286 284 285 287 291 298 303 302 303 307 310 313 313 312 310 310 311 314 315 316 315 312 311 310 307 305 304 301 299 298 296 293 292 290 289
316 318 314 310 305 298 292 287 283 282 285 294 300 301 303 308 313 315 314 313 312 313 314 315 315 313 312 310 308 307 308 308 306 305 302 300 298 296 294 292 291 290 289
307 306 304 299 291 284 277 274 274 281 290 293 296 300 304 305 305 306 306 307 309 308 308 308 307 306 306 304 302 300 300 300 299 299 297 294 293 293 291 289 289 289 287
297 298 295 290 283 276 272 274 280 286 288 293 298 301 302 304 305 305 305 307 307 306 305 304 303 303 303 302 301 298 296 295 294 293 292 290 290 289 288 287 286 286 287
Wind_Speed_850mb
24 27 32 32 41 36 45 50 38 22 28 35 38 29 32 28 24 15 13 10 16 25 29 36 48 48 51 55 55 57 61 59 62 52 55 50 48 41 39 35 36 38 41
15 17 21 26 24 34 40 40 31 33 36 37 40 36 26 17 23 24 19 31 39 41 29 30 29 26 31 34 39 44 47 48 46 42 36 29 24 22 21 21 25 28 27
13 17 22 30 39 43 40 39 36 38 43 38 35 24 19 16 16 12 12 11 14 14 15 16 17 17 15 13 12 9 9 5 5 18 19 16 15 13 14 18 19 16 13
6 15 25 33 38 40 42 33 43 42 35 33 26 13 24 25 23 28 32 35 38 37 33 29 26 21 19 16 11 9 9 5 6 8 14 17 15 18 13 13 15 15 15
12 22 25 31 37 38 38 40 39 37 36 31 35 44 49 52 51 43 39 37 37 31 27 24 23 25 25 24 22 26 25 21 18 18 24 26 28 28 25 24 24 24 21
30 34 37 42 45 48 53 50 51 56 63 62 64 62 57 53 46 37 33 32 32 29 27 27 28 27 24 23 23 24 25 25 24 20 24 25 24 22 22 22 19 17 15
48 53 58 65 70 70 71 77 75 69 64 63 59 51 52 48 40 34 30 27 27 30 31 28 26 29 27 25 24 22 22 20 17 14 12 14 13 13 11 11 13 12 11
70 72 73 74 76 73 72 73 67 62 59 52 49 46 42 45 36 32 28 30 30 32 32 29 26 26 28 26 20 17 20 18 18 16 12 10 11 10 9 8 9 9 10
72 72 69 71 73 71 69 66 60 54 53 53 49 47 46 46 38 34 27 25 24 24 24 23 23 20 20 20 14 14 14 13 13 10 9 5 7 6 6 7 8 10 12
61 58 58 59 60 59 55 51 51 48 48 43 42 41 39 40 34 31 25 21 18 17 16 17 13 15 13 10 7 6 6 5 4 3 3 5 6 9 11 13 14 15 18
50 46 49 50 52 50 47 43 42 41 38 34 34 33 29 26 24 18 15 12 11 8 10 9 9 9 7 7 8 8 9 9 8 10 12 13 13 16 17 19 20 22 23
39 38 40 40 41 38 34 35 33 29 26 28 25 25 23 19 14 10 7 6 4 5 5 6 5 7 9 11 11 11 11 11 11 12 15 17 19 21 23 23 23 21 24
28 26 26 25 25 25 22 21 18 17 16 17 15 14 13 11 9 6 6 7 10 8 10 11 15 13 16 19 18 16 15 14 14 15 18 19 20 22 22 25 25 27 28
22 21 20 16 15 15 14 13 12 10 9 10 10 10 10 10 11 10 8 10 10 9 7 10 13 15 15 20 19 15 14 15 17 18 18 18 21 23 23 25 25 25 27
22 19 15 13 11 9 6 2 1 1 2 4 5 7 7 8 12 14 16 12 14 12 12 15 16 19 21 22 21 20 21 23 25 24 24 23 23 23 24 25 24 25 25
25 23 21 19 17 15 12 12 12 13 14 14 15 15 16 20 21 22 24 22 19 15 14 18 21 23 24 23 23 24 25 25 24 23 22 21 21 22 23 24 24 24 25
23 21 18 15 12 9 7 7 8 12 14 15 18 20 15 16 18 20 21 18 16 16 17 19 20 21 22 23 25 25 25 23 22 23 22 21 23 23 24 24 24 25 26
24 22 21 19 17 15 14 13 16 18 19 19 19 18 22 19 19 18 17 15 14 12 13 15 17 19 21 22 23 22 22 22 22 23 23 23 23 24 25 25 26 26 26
19 19 18 16 13 10 9 9 10 13 15 16 18 18 19 19 19 19 17 15 14 13 13 14 15 16 18 19 21 22 23 25 25 26 27 27 28 28 27 27 27 28 28
21 22 22 20 19 17 15 13 12 12 13 14 16 15 14 15 16 16 14 13 13 13 13 15 16 18 20 22 24 25 26 27 28 29 31 32 32 32 32 32 32 33 33
21 22 22 21 19 17 15 14 13 13 14 16 17 15 15 13 12 11 11 12 13 14 15 17 18 20 21 23 24 26 28 30 33 34 34 35 37 37 38 39 40 42 42
19 20 20 20 19 17 15 13 12 13 13 13 13 13 11 12 13 14 15 15 16 17 18 19 21 23 25 26 28 29 30 30 32 37 38 39 40 40 42 44 45 46 47
21 21 21 21 19 17 15 14 13 12 12 12 12 12 13 14 15 16 17 18 19 21 22 22 22 24 28 30 33 35 37 37 38 40 43 44 45 46 46 48 49 50 51
22 22 23 22 21 20 18 15 13 13 13 14 15 16 17 18 19 20 21 21 22 23 25 28 31 34 35 36 38 40 43 44 47 48 51 55 56 56 56 57 57 57 58
23 24 23 22 20 19 17 16 16 16 16 17 18 19 20 21 23 23 24 25 26 28 30 34 37 39 41 44 46 48 50 52 54 56 59 62 64 65 65 66 66 65 64
22 22 22 21 19 18 18 18 17 17 17 19 20 22 22 23 24 25 27 31 33 36 39 42 46 51 52 53 53 55 58 61 64 66 69 72 75 75 75 74 73 72 72
Wind_Direction_850mb
227 231 239 232 233 225 229 222 222 221 216 216 219 215 211 226 233 212 233 228 269 276 242 259 254 245 252 254 260 262 254 249 245 247 253 246 239 237 234 235 232 233 234
247 236 231 221 213 210 217 207 211 205 205 197 191 185 189 197 196 200 225 245 249 252 235 242 249 242 250 254 254 255 255 257 256 258 239 229 228 229 226 222 218 224 232
239 226 218 209 201 193 190 175 183 189 191 185 185 187 188 207 229 227 225 203 162 150 139 124 109 91 97 91 90 96 96 87 231 235 211 195 182 175 185 194 199 207 216
221 202 199 180 173 181 175 162 175 176 179 176 173 155 138 136 129 119 115 118 110 108 104 97 103 100 96 96 95 85 69 65 99 134 147 148 149 148 151 168 168 157 152
157 157 156 152 153 157 144 157 158 158 146 140 135 125 118 112 106 107 105 108 106 105 104 105 102 95 87 83 82 86 82 90 102 112 122 126 131 136 141 148 153 150 150
124 121 123 126 131 125 132 127 130 126 118 119 114 112 109 104 104 106 106 107 103 105 109 107 103 96 93 91 85 84 86 89 94 109 119 129 135 142 150 155 164 172 193
102 102 104 108 110 114 113 116 114 109 110 109 109 107 102 101 102 98 97 101 111 113 107 101 99 94 87 81 81 84 91 94 104 108 118 136 150 161 178 195 199 196 204
88 92 94 97 98 101 101 97 100 103 103 105 106 105 109 100 98 95 99 103 108 105 102 100 96 95 90 82 77 85 91 99 103 105 109 123 132 146 159 179 192 207 220
71 76 80 83 86 87 87 91 93 93 98 99 102 106 106 102 98 95 92 93 98 102 100 105 97 96 91 92 82 82 84 101 109 111 110 142 156 175 197 209 222 237 243
68 71 75 82 84 86 88 90 93 101 101 102 105 105 106 106 103 97 96 95 94 93 100 89 93 79 71 60 52 44 55 47 37 18 274 263 268 261 256 257 258 257 257
63 67 73 77 80 81 85 88 89 88 91 94 97 95 93 89 91 91 91 87 84 72 66 65 47 47 18 354 338 332 326 311 301 284 279 275 271 270 271 268 268 267 267
58 60 64 65 67 71 74 78 78 80 89 90 81 77 75 73 70 63 47 24 20 359 352 335 309 297 295 300 294 296 300 297 293 291 285 280 275 270 267 267 267 265 264
59 61 64 67 74 79 77 80 84 82 74 78 75 76 66 51 24 350 304 290 284 285 276 275 279 289 298 300 301 299 300 306 309 313 308 302 296 291 290 290 287 284 278
52 55 59 62 71 77 76 76 65 61 48 35 27 18 7 358 340 335 347 343 331 315 293 294 295 302 304 300 318 311 303 308 308 304 301 295 294 291 290 285 282 279 284
50 56 58 61 59 53 49 77 152 224 254 320 328 332 326 309 301 309 304 290 292 291 280 284 284 291 295 300 307 306 305 305 303 303 306 299 294 294 293 292 294 294 289
32 33 33 29 22 22 33 40 28 13 5 358 352 348 330 319 313 303 301 299 278 272 271 276 280 286 294 296 298 299 299 303 308 305 295 298 301 298 297 300 301 297 294
28 27 29 28 28 21 351 321 317 327 324 326 329 330 328 312 301 301 304 305 287 281 277 273 276 284 291 296 299 303 307 308 306 303 305 305 300 300 299 300 299 295 293
25 21 18 13 6 357 345 325 315 313 313 315 314 312 317 321 318 317 318 319 307 294 287 284 290 296 301 305 309 313 315 315 314 313 311 308 307 306 305 303 300 297 295
19 16 11 8 4 353 337 319 304 300 302 306 307 311 316 317 319 321 323 318 323 323 318 314 313 314 315 315 314 314 312 311 309 308 307 308 308 306 305 304 302 301 299
7 3 358 353 350 346 340 333 323 315 309 305 307 314 313 319 322 322 327 332 330 328 325 320 316 312 309 307 307 308 310 310 309 312 312 310 308 306 304 301 298 294 293
0 356 352 346 339 331 319 308 303 299 298 301 310 322 322 321 326 325 324 322 320 316 311 309 309 309 309 309 309 309 310 312 312 308 306 305 304 303 301 298 294 291 291
337 334 331 327 323 316 307 297 288 284 286 290 297 303 309 312 311 310 312 312 312 312 311 310 310 308 308 309 310 310 310 310 308 306 305 303 299 297 294 293 291 291 290
326 328 327 323 317 310 301 292 286 284 285 287 291 298 303 302 303 307 310 313 313 312 310 310 311 314 315 316 315 312 311 310 307 305 304 301 299 298 296 293 292 290 289
316 318 314 310 305 298 292 287 283 282 285 294 300 301 303 308 313 315 314 313 312 313 314 315 315 313 312 310 308 307 308 308 306 305 302 300 298 296 294 292 291 290 289
307 306 304 299 291 284 277 274 274 281 290 293 296 300 304 305 305 306 306 307 309 308 308 308 307 306 306 304 302 300 300 300 299 299 297 294 293 293 291 289 289 289 287
297 298 295 290 283 276 272 274 280 286 288 293 298 301 302 304 305 305 305 307 307 306 305 304 303 303 303 302 301 298 296 295 294 293 292 290 290 289 288 287 286 286 287